When you browse on this site, cookies collect data to enhance your experience and personalize the content and advertising you see.
Visit our Privacy Policy to learn more. By continuing to use the site, you agree to this use of cookies and data.
  • In Hungary
  • List of Countries
  • For 7 days
  • Water Temperature
  • Satellite Maps
  • Weather Map
  • News
  • Weather Widgets
  • user-avatar
    Login

    Hourly Weather Saint Nazaire

    Today, 27 June, Thursday

    Time Temperature Precipitation Wind Pressure Humidity
    00:00 +26°C° 0 mm 4 mps 762 mmHg 85%
    01:00 +26°C° 0 mm 5 mps 762 mmHg 87%
    02:00 +25°C° 0 mm 5 mps 762 mmHg 89%
    03:00 +24°C° 0 mm 6 mps 762 mmHg 91%
    04:00 +24°C° 0 mm 6 mps 762 mmHg 91%
    05:00 +24°C° 0 mm 6 mps 763 mmHg 91%
    06:00 +24°C° 0 mm 7 mps 763 mmHg 91%
    07:00 +26°C° 0 mm 6 mps 763 mmHg 84%
    08:00 +28°C° 0 mm 6 mps 763 mmHg 77%
    09:00 +29°C° 0 mm 5 mps 763 mmHg 70%
    10:00 +30°C° 0 mm 5 mps 763 mmHg 66%
    11:00 +33°C° 0 mm 4 mps 763 mmHg 61%
    12:00 +34°C° 0 mm 4 mps 763 mmHg 57%
    13:00 +35°C° 0 mm 4 mps 763 mmHg 56%
    14:00 +35°C° 0 mm 3 mps 763 mmHg 54%
    15:00 +36°C° 0 mm 3 mps 763 mmHg 53%
    16:00 +35°C° 0 mm 3 mps 762 mmHg 57%
    17:00 +35°C° 0 mm 3 mps 762 mmHg 61%
    18:00 +34°C° 0 mm 3 mps 761 mmHg 65%
    19:00 +33°C° 0 mm 3 mps 761 mmHg 72%
    20:00 +30°C° 0 mm 4 mps 762 mmHg 79%
    21:00 +29°C° 0 mm 5 mps 762 mmHg 87%
    22:00 +29°C° 0 mm 5 mps 762 mmHg 88%
    23:00 +28°C° 0 mm 6 mps 762 mmHg 89%

    Tomorrow, 28 June, Friday

    Time Temperature Precipitation Wind Pressure Humidity
    00:00 +28°C° 0 mm 6 mps 762 mmHg 91%
    01:00 +28°C° 0 mm 5 mps 761 mmHg 93%
    02:00 +27°C° 0 mm 5 mps 761 mmHg 95%
    03:00 +26°C° 0 mm 4 mps 761 mmHg 97%
    04:00 +26°C° 0 mm 5 mps 761 mmHg 95%
    05:00 +26°C° 0 mm 5 mps 761 mmHg 94%
    06:00 +26°C° 0 mm 5 mps 761 mmHg 92%
    07:00 +27°C° 0 mm 5 mps 761 mmHg 87%
    08:00 +28°C° 0 mm 4 mps 761 mmHg 82%
    09:00 +30°C° 0 mm 4 mps 761 mmHg 77%
    10:00 +30°C° 0 mm 4 mps 761 mmHg 72%
    11:00 +32°C° 0 mm 4 mps 761 mmHg 68%
    12:00 +33°C° 0 mm 4 mps 761 mmHg 63%
    13:00 +32°C° 0 mm 4 mps 761 mmHg 63%
    14:00 +32°C° 0 mm 4 mps 761 mmHg 64%
    15:00 +30°C° 0 mm 4 mps 761 mmHg 65%
    16:00 +29°C° 0 mm 3 mps 761 mmHg 70%
    17:00 +28°C° 0 mm 3 mps 761 mmHg 74%
    18:00 +26°C° 0 mm 3 mps 761 mmHg 79%
    19:00 +25°C° 0 mm 3 mps 761 mmHg 84%
    20:00 +24°C° 0 mm 2 mps 761 mmHg 89%
    21:00 +21°C° 0 mm 2 mps 761 mmHg 94%
    22:00 +21°C° 0 mm 2 mps 761 mmHg 93%
    23:00 +22°C° 0 mm 1 mps 761 mmHg 93%

    Day after tomorrow, 29 June, Saturday

    Time Temperature Precipitation Wind Pressure Humidity
    00:00 +22°C° 0 mm 1 mps 761 mmHg 93%
    01:00 +22°C° 0 mm 1 mps 760 mmHg 93%
    02:00 +22°C° 0 mm 1 mps 760 mmHg 93%
    03:00 +19°C° 0 mm 0 mps 760 mmHg 92%
    04:00 +20°C° 0 mm 0 mps 760 mmHg 91%
    05:00 +21°C° 0 mm 0 mps 760 mmHg 90%
    06:00 +21°C° 0 mm 0 mps 760 mmHg 89%
    07:00 +25°C° 0 mm 1 mps 760 mmHg 84%
    08:00 +26°C° 0 mm 2 mps 760 mmHg 79%
    09:00 +28°C° 0 mm 2 mps 760 mmHg 74%
    10:00 +28°C° 0 mm 3 mps 760 mmHg 74%
    11:00 +27°C° 0 mm 4 mps 760 mmHg 74%
    12:00 +27°C° 0 mm 4 mps 760 mmHg 74%
    13:00 +27°C° 0 mm 4 mps 760 mmHg 75%
    14:00 +26°C° 0 mm 5 mps 760 mmHg 75%
    15:00 +26°C° 0 mm 5 mps 760 mmHg 76%
    16:00 +26°C° 0 mm 5 mps 760 mmHg 77%
    17:00 +24°C° 0 mm 6 mps 760 mmHg 77%
    18:00 +24°C° 0 mm 6 mps 761 mmHg 78%
    19:00 +23°C° 0 mm 6 mps 761 mmHg 75%
    20:00 +23°C° 0 mm 5 mps 762 mmHg 72%
    21:00 +22°C° 0 mm 5 mps 762 mmHg 70%
    22:00 +20°C° 0 mm 4 mps 762 mmHg 74%
    23:00 +19°C° 0 mm 3 mps 762 mmHg 78%

    30 June, Sunday

    Time Temperature Precipitation Wind Pressure Humidity
    00:00 +17°C° 0 mm 3 mps 763 mmHg 83%
    01:00 +17°C° 0 mm 3 mps 763 mmHg 83%
    02:00 +16°C° 0 mm 3 mps 763 mmHg 84%
    03:00 +14°C° 0 mm 3 mps 763 mmHg 85%
    04:00 +16°C° 0.1 mm 2 mps 763 mmHg 84%
    05:00 +16°C° 0.1 mm 2 mps 763 mmHg 84%
    06:00 +16°C° 0.1 mm 2 mps 763 mmHg 83%
    07:00 +18°C° 0 mm 2 mps 764 mmHg 75%
    08:00 +20°C° 0 mm 2 mps 764 mmHg 68%
    09:00 +22°C° 0 mm 1 mps 764 mmHg 60%
    10:00 +23°C° 0 mm 2 mps 764 mmHg 57%
    11:00 +24°C° 0 mm 2 mps 764 mmHg 55%
    12:00 +25°C° 0 mm 3 mps 764 mmHg 52%
    13:00 +25°C° 0 mm 4 mps 764 mmHg 53%
    14:00 +25°C° 0 mm 4 mps 764 mmHg 54%
    15:00 +25°C° 0 mm 5 mps 763 mmHg 56%
    16:00 +25°C° 0 mm 5 mps 763 mmHg 61%
    17:00 +23°C° 0 mm 5 mps 763 mmHg 65%
    18:00 +22°C° 0 mm 5 mps 763 mmHg 70%
    19:00 +21°C° 0 mm 5 mps 764 mmHg 75%
    20:00 +20°C° 0 mm 5 mps 764 mmHg 81%
    21:00 +18°C° 0 mm 4 mps 764 mmHg 87%
    22:00 +18°C° 0 mm 4 mps 764 mmHg 87%
    23:00 +17°C° 0 mm 4 mps 765 mmHg 86%

    1 July, Monday

    Time Temperature Precipitation Wind Pressure Humidity
    00:00 +15°C° 0 mm 4 mps 765 mmHg 86%
    01:00 +14°C° 0 mm 5 mps 765 mmHg 87%
    02:00 +14°C° 0 mm 5 mps 765 mmHg 88%
    03:00 +14°C° 0 mm 5 mps 765 mmHg 90%
    04:00 +14°C° 0 mm 5 mps 765 mmHg 88%
    05:00 +14°C° 0 mm 4 mps 765 mmHg 86%
    06:00 +15°C° 0 mm 4 mps 765 mmHg 85%
    07:00 +17°C° 0 mm 4 mps 766 mmHg 79%
    08:00 +19°C° 0 mm 4 mps 766 mmHg 73%
    09:00 +20°C° 0 mm 3 mps 766 mmHg 66%
    10:00 +21°C° 0 mm 4 mps 766 mmHg 64%
    11:00 +22°C° 0 mm 4 mps 766 mmHg 61%
    12:00 +23°C° 0 mm 4 mps 766 mmHg 58%
    13:00 +23°C° 0 mm 5 mps 766 mmHg 59%
    14:00 +23°C° 0 mm 5 mps 766 mmHg 59%
    15:00 +23°C° 0 mm 5 mps 766 mmHg 60%
    16:00 +22°C° 0 mm 5 mps 766 mmHg 62%
    17:00 +21°C° 0 mm 6 mps 766 mmHg 64%
    18:00 +20°C° 0 mm 6 mps 766 mmHg 66%
    19:00 +19°C° 0 mm 6 mps 766 mmHg 71%
    20:00 +16°C° 0 mm 6 mps 766 mmHg 76%
    21:00 +14°C° 0 mm 6 mps 767 mmHg 81%
    22:00 +13°C° 0 mm 5 mps 767 mmHg 84%
    23:00 +12°C° 0 mm 5 mps 767 mmHg 87%

    2 July, Tuesday

    Time Temperature Precipitation Wind Pressure Humidity
    00:00 +11°C° 0 mm 4 mps 767 mmHg 91%
    01:00 +10°C° 0 mm 4 mps 767 mmHg 91%
    02:00 +10°C° 0 mm 4 mps 767 mmHg 92%
    03:00 +10°C° 0 mm 4 mps 766 mmHg 93%
    04:00 +11°C° 0 mm 4 mps 766 mmHg 90%
    05:00 +11°C° 0 mm 4 mps 766 mmHg 87%
    06:00 +12°C° 0 mm 4 mps 766 mmHg 85%
    07:00 +14°C° 0 mm 4 mps 766 mmHg 77%
    08:00 +17°C° 0 mm 4 mps 766 mmHg 70%
    09:00 +19°C° 0 mm 4 mps 766 mmHg 63%
    10:00 +21°C° 0 mm 4 mps 766 mmHg 58%
    11:00 +22°C° 0 mm 4 mps 766 mmHg 54%
    12:00 +23°C° 0 mm 4 mps 766 mmHg 50%
    13:00 +25°C° 0 mm 4 mps 765 mmHg 49%
    14:00 +25°C° 0 mm 4 mps 765 mmHg 48%
    15:00 +26°C° 0 mm 4 mps 764 mmHg 47%
    16:00 +25°C° 0 mm 5 mps 764 mmHg 52%
    17:00 +24°C° 0 mm 6 mps 764 mmHg 57%
    18:00 +23°C° 0 mm 6 mps 764 mmHg 62%
    19:00 +21°C° 0 mm 6 mps 764 mmHg 69%
    20:00 +20°C° 0 mm 7 mps 765 mmHg 75%
    21:00 +17°C° 0 mm 7 mps 765 mmHg 82%
    22:00 +16°C° 0 mm 7 mps 765 mmHg 84%
    23:00 +15°C° 0 mm 7 mps 765 mmHg 85%
    Show more